KT2UU-13 Weather Reports


time (UTC)temp
C
wind
direction
speed
KPH
gust
KPH
rain 1hr
cm
rain 24hr
cm
rain mn
cm
humidity
%
barometer
mb
20260504050421 8 181 0.0 0.0 0.00 0.00 0.00 85 1019.2
20260504045918 8 181 0.0 0.0 0.00 0.00 0.00 85 1019.2
20260504045414 8 181 0.0 0.0 0.00 0.00 0.00 86 1019.2
20260504044910 8 180 0.0 0.0 0.00 0.00 0.00 86 1019.2
20260504044408 8 181 0.0 0.0 0.00 0.00 0.00 85 1019.1
20260504043905 8 181 0.0 0.0 0.00 0.00 0.00 84 1019.3
20260504043402 8 180 0.0 0.0 0.00 0.00 0.00 84 1019.1
20260504042900 8 180 0.0 0.0 0.00 0.00 0.00 84 1019.1
20260504042355 9 175 0.0 0.0 0.00 0.00 0.00 84 1019.1
20260504041852 9 181 0.0 0.0 0.00 0.00 0.00 84 1019.2
20260504041348 9 181 0.0 0.0 0.00 0.00 0.00 84 1019.1
20260504040845 10 181 0.0 0.0 0.00 0.00 0.00 83 1018.9
20260504040343 10 181 0.0 0.0 0.00 0.00 0.00 82 1019.0
20260504035838 9 181 0.0 0.0 0.00 0.00 0.00 83 1019.0
20260504035337 9 181 0.0 0.0 0.00 0.00 0.00 85 1019.1
20260504034832 9 181 0.0 0.0 0.00 0.00 0.00 84 1019.3
20260504034330 10 181 0.0 0.0 0.00 0.00 0.00 83 1019.0
20260504033827 10 181 0.0 0.0 0.00 0.00 0.00 83 1019.3
20260504033326 10 181 0.0 0.0 0.00 0.00 0.00 83 1019.3
20260504032821 10 181 0.0 0.0 0.00 0.00 0.00 82 1019.1
20260504032319 10 181 0.0 0.0 0.00 0.00 0.00 81 1018.9
20260504031815 10 181 0.0 0.0 0.00 0.00 0.00 82 1019.0
20260504031313 10 181 0.0 0.0 0.00 0.00 0.00 82 1019.0
20260504030809 10 176 0.0 0.0 0.00 0.00 0.00 81 1019.1
20260504030306 10 181 0.0 1.6 0.00 0.00 0.00 79 1018.7
20260504025802 10 181 0.0 0.0 0.00 0.00 0.00 82 1018.9
20260504025259 10 181 0.0 0.0 0.00 0.00 0.00 82 1019.2
20260504024756 10 181 0.0 0.0 0.00 0.00 0.00 81 1019.2
20260504024253 10 181 0.0 0.0 0.00 0.00 0.00 81 1019.1
20260504023750 11 181 0.0 0.0 0.00 0.00 0.00 81 1019.3
20260504023246 11 175 0.0 0.0 0.00 0.00 0.00 79 1019.1
20260504022742 11 181 0.0 0.0 0.00 0.00 0.00 78 1018.9
20260504022238 11 181 0.0 0.0 0.00 0.00 0.00 78 1019.0
20260504021735 11 181 0.0 1.6 0.00 0.00 0.00 77 1018.8
20260504021232 11 181 0.0 0.0 0.00 0.00 0.00 76 1018.9
20260504020724 11 181 0.0 0.0 0.00 0.00 0.00 75 1018.9
20260504020220 12 181 0.0 0.0 0.00 0.00 0.00 74 1018.9
20260504015716 12 181 0.0 0.0 0.00 0.00 0.00 74 1018.7
20260504015212 12 181 0.0 0.0 0.00 0.00 0.00 73 1018.6
20260504014708 12 176 0.0 0.0 0.00 0.00 0.00 73 1018.6
20260504014206 12 181 0.0 0.0 0.00 0.00 0.00 71 1018.7
20260504013703 12 181 0.0 0.0 0.00 0.00 0.00 69 1018.5
20260504013200 13 181 0.0 0.0 0.00 0.00 0.00 68 1018.7
20260504012657 13 181 0.0 0.0 0.00 0.00 0.00 68 1018.5
20260504012155 13 181 0.0 0.0 0.00 0.00 0.00 64 1018.4
20260504011651 14 181 0.0 0.0 0.00 0.00 0.00 63 1018.3
20260504011148 14 181 0.0 0.0 0.00 0.00 0.00 61 1018.3
20260504010644 15 181 0.0 0.0 0.00 0.00 0.00 58 1018.2
20260504010140 15 176 0.0 0.0 0.00 0.00 0.00 57 1018.1
20260504005637 16 181 0.0 1.6 0.00 0.00 0.00 53 1018.3
20260504005133 16 181 3.2 3.2 0.00 0.00 0.00 51 1018.0
20260504004632 16 197 1.6 3.2 0.00 0.00 0.00 52 1018.1
20260504004128 16 183 0.0 1.6 0.00 0.00 0.00 52 1018.0
20260504003625 16 183 0.0 3.2 0.00 0.00 0.00 52 1018.0
20260504003121 16 194 0.0 0.0 0.00 0.00 0.00 54 1017.9
20260504002618 16 195 0.0 0.0 0.00 0.00 0.00 56 1017.8
20260504002116 17 195 0.0 0.0 0.00 0.00 0.00 52 1018.0
20260504001614 17 195 0.0 1.6 0.00 0.00 0.00 48 1018.3
20260504001109 17 185 0.0 1.6 0.00 0.00 0.00 47 1018.2
20260504000607 17 193 0.0 0.0 0.00 0.00 0.00 47 1018.0
20260504000104 18 193 0.0 0.0 0.00 0.00 0.00 47 1018.2
20260503235603 18 193 0.0 1.6 0.00 0.00 0.00 47 1018.2
20260503235059 18 203 1.6 3.2 0.00 0.00 0.00 44 1018.2
20260503234557 19 189 0.0 0.0 0.00 0.00 0.00 43 1018.0
20260503234055 19 200 0.0 0.0 0.00 0.00 0.00 42 1018.1
20260503233551 20 200 0.0 3.2 0.00 0.00 0.00 42 1018.0
20260503233047 20 189 1.6 1.6 0.00 0.00 0.00 40 1018.1
20260503232544 20 218 1.6 6.4 0.00 0.00 0.00 39 1018.1
20260503232042 20 191 1.6 1.6 0.00 0.00 0.00 41 1018.1
20260503231540 21 176 1.6 4.8 0.00 0.00 0.00 40 1018.0
20260503231036 21 202 1.6 4.8 0.00 0.00 0.00 42 1018.0
20260503230532 20 227 0.0 0.0 0.00 0.00 0.00 42 1018.0
20260503230030 20 227 0.0 1.6 0.00 0.00 0.00 42 1018.1
20260503225527 20 226 3.2 6.4 0.00 0.00 0.00 40 1018.0
20260503225021 21 201 0.0 3.2 0.00 0.00 0.00 40 1018.1
20260503224520 21 249 1.6 3.2 0.00 0.00 0.00 40 1018.3
20260503224017 21 278 3.2 4.8 0.00 0.00 0.00 39 1018.3
20260503223515 21 240 6.4 9.7 0.00 0.00 0.00 39 1018.4
20260503223010 21 188 4.8 9.7 0.00 0.00 0.00 39 1018.1
20260503222509 21 239 0.0 3.2 0.00 0.00 0.00 40 1018.3
20260503222006 21 285 0.0 3.2 0.00 0.00 0.00 39 1018.5
20260503221504 21 190 6.4 9.7 0.00 0.00 0.00 40 1018.4
20260503221001 21 228 3.2 4.8 0.00 0.00 0.00 41 1018.4
20260503220457 21 278 6.4 9.7 0.00 0.00 0.00 40 1018.3
20260503215954 21 187 0.0 3.2 0.00 0.00 0.00 41 1018.5
20260503215451 21 239 0.0 4.8 0.00 0.00 0.00 40 1018.6
20260503214949 21 187 4.8 6.4 0.00 0.00 0.00 40 1018.3
20260503214447 21 176 4.8 6.4 0.00 0.00 0.00 42 1018.4
20260503213943 21 224 1.6 4.8 0.00 0.00 0.00 40 1018.5
20260503213442 20 255 3.2 11.3 0.00 0.00 0.00 40 1018.5
20260503212938 20 145 3.2 14.5 0.00 0.00 0.00 41 1018.4
20260503212435 21 242 0.0 0.0 0.00 0.00 0.00 38 1018.7
20260503211933 20 188 4.8 4.8 0.00 0.00 0.00 41 1018.8
20260503211430 20 202 1.6 3.2 0.00 0.00 0.00 40 1018.7
20260503210925 20 158 3.2 6.4 0.00 0.00 0.00 42 1018.7
20260503210422 20 81 0.0 4.8 0.00 0.00 0.00 40 1018.7
20260503205917 20 149 0.0 4.8 0.00 0.00 0.00 42 1018.8
20260503205414 20 185 3.2 4.8 0.00 0.00 0.00 41 1018.9
20260503204910 20 170 3.2 4.8 0.00 0.00 0.00 38 1018.9
20260503204408 20 133 4.8 4.8 0.00 0.00 0.00 41 1019.0
20260503203905 20 182 0.0 4.8 0.00 0.00 0.00 42 1019.1
20260503203402 21 184 6.4 6.4 0.00 0.00 0.00 40 1019.0
20260503202859 21 195 3.2 9.7 0.00 0.00 0.00 39 1019.1
20260503202357 20 193 0.0 1.6 0.00 0.00 0.00 38 1019.1
20260503201855 20 201 1.6 4.8 0.00 0.00 0.00 38 1019.4
20260503201352 20 250 4.8 11.3 0.00 0.00 0.00 39 1019.1
20260503200850 20 164 1.6 4.8 0.00 0.00 0.00 41 1019.4
20260503200345 19 191 0.0 6.4 0.00 0.00 0.00 44 1019.5
20260503195843 20 266 4.8 9.7 0.00 0.00 0.00 39 1019.6
20260503195339 20 208 3.2 9.7 0.00 0.00 0.00 41 1019.6
20260503194836 20 199 4.8 9.7 0.00 0.00 0.00 40 1019.8
20260503194332 21 275 1.6 4.8 0.00 0.00 0.00 41 1020.0
20260503193829 20 175 1.6 3.2 0.00 0.00 0.00 42 1020.0
20260503193324 19 333 0.0 6.4 0.00 0.00 0.00 46 1020.0
20260503192821 19 167 1.6 3.2 0.00 0.00 0.00 42 1020.2
20260503192316 20 113 3.2 6.4 0.00 0.00 0.00 43 1020.2
20260503191812 19 146 0.0 1.6 0.00 0.00 0.00 47 1020.1
20260503191310 18 146 1.6 6.4 0.00 0.00 0.00 47 1020.1
20260503190806 19 162 4.8 6.4 0.00 0.00 0.00 43 1020.2
20260503190304 18 214 0.0 6.4 0.00 0.00 0.00 45 1020.3
20260503185801 19 175 3.2 11.3 0.00 0.00 0.00 46 1020.3
20260503185256 19 110 1.6 3.2 0.00 0.00 0.00 45 1020.4
20260503184756 18 283 1.6 4.8 0.00 0.00 0.00 46 1020.4
20260503184253 18 185 3.2 4.8 0.00 0.00 0.00 44 1020.7
20260503183748 18 160 6.4 11.3 0.00 0.00 0.00 48 1020.8
20260503183246 17 192 3.2 3.2 0.00 0.00 0.00 49 1020.6
20260503182744 18 146 1.6 1.6 0.00 0.00 0.00 52 1020.7
20260503182243 17 188 1.6 4.8 0.00 0.00 0.00 51 1020.7
20260503181739 17 139 4.8 4.8 0.00 0.00 0.00 50 1020.8
20260503181236 17 191 3.2 6.4 0.00 0.00 0.00 49 1021.0
20260503180732 17 356 3.2 6.4 0.00 0.00 0.00 46 1021.1
20260503180231 17 115 4.8 11.3 0.00 0.00 0.00 49 1020.9
20260503175727 17 198 1.6 6.4 0.00 0.00 0.00 46 1021.1
20260503175225 17 288 0.0 6.4 0.00 0.00 0.00 45 1021.4
20260503174721 17 247 3.2 11.3 0.00 0.00 0.00 44 1021.1
20260503174219 17 206 3.2 3.2 0.00 0.00 0.00 46 1021.2
20260503173714 17 176 0.0 6.4 0.00 0.00 0.00 48 1021.0
20260503173210 17 288 6.4 9.7 0.00 0.00 0.00 46 1020.9
20260503172707 16 254 1.6 4.8 0.00 0.00 0.00 48 1021.3
20260503172204 16 220 4.8 12.9 0.00 0.00 0.00 46 1021.4
20260503171700 16 359 1.6 3.2 0.00 0.00 0.00 48 1021.3
20260503171158 16 157 3.2 4.8 0.00 0.00 0.00 47 1021.6
20260503170655 16 271 1.6 4.8 0.00 0.00 0.00 48 1021.7
20260503170151 16 199 4.8 11.3 0.00 0.00 0.00 47 1021.7
20260503160113 15 139 0.0 0.0 0.00 0.00 0.00 58 1022.3
20260503150543 14 350 3.2 4.8 0.00 0.00 0.00 62 1022.5
20260503130933 12 239 1.6 3.2 0.00 0.00 0.00 77 1021.8
20260503130431 12 237 0.0 1.6 0.00 0.00 0.00 75 1021.7
20260503110824 4 343 0.0 0.0 0.00 0.00 0.00 97 1020.9
20260503110320 4 343 0.0 0.0 0.00 0.00 0.00 97 1020.6
20260503100247 5 343 0.0 0.0 0.00 0.00 0.00 95 1020.3
20260503090206 6 237 0.0 0.0 0.00 0.00 0.00 91 1019.6
20260503081138 6 278 0.0 0.0 0.00 0.00 0.00 90 1019.4
20260503080634 6 282 0.0 0.0 0.00 0.00 0.00 89 1019.2
20260503080131 7 258 0.0 0.0 0.00 0.00 0.00 89 1019.1
20260503072608 8 342 0.0 1.6 0.00 0.00 0.00 83 1019.0
20260503072106 8 218 0.0 0.0 0.00 0.00 0.00 83 1018.9
20260503071602 7 251 0.0 1.6 0.00 0.00 0.00 83 1018.9
20260503071059 7 243 0.0 0.0 0.00 0.00 0.00 85 1018.8
20260503070555 7 243 0.0 0.0 0.00 0.00 0.00 85 1018.9
20260503055014 8 248 0.0 0.0 0.00 0.00 0.00 82 1018.9